TIME,DELAY(SENSOR),PRES,T(CTD),SAL,OXYGEN,RAWTEMP,T(OPTODE),TCPHASE,FLUOR,BETA(BETA700),BETA(BETA412),BETA(BETA440),CDOM,C(CSC),ED(ED412.40),ED(ED444.00),ED(ED489.70),ED(ED554.30),LU(LU411.80),LU(LU443.40),LU(LU489.60),LU(LU554.10),COMP,TILTX,TILTX(TILTY),CHECK
1361223575,5807,493.7000122070312500,6.9567999839782715,34.0985984802246100,97.2845687866211000,588.7188110351562000,6.9480919837951660,46.8077888488769500,50,103,84,80,76,14909,2147749668,2147422034,2148008694,2147872054,2147625353,2147071680,2148235574,2147198180,3354,4,13,35292
1361223685,5810,482.1700134277344000,7.1089000701904300,34.0987014770507800,103.3771972656250000,584.1729736328125000,7.0943570137023930,46.0952796936035160,51,102,84,80,77,14909,2147749732,2147423808,2148003648,2147875538,2147624594,2147079497,2148241581,2147196589,43,4,12,38071
1361223784,5805,471.2200012207031000,7.2725000381469730,34.0917015075683600,107.4292984008789000,578.5654296875000000,7.2745318412780760,45.5915794372558600,50,103,87,80,77,14908,2147748754,2147425243,2148007021,2147875017,2147625417,2147083200,2148235410,2147199798,384,4,13,28393
1361223916,5808,456.8999938964844000,7.6479001045227050,34.0983009338378900,115.4582977294921900,567.7354125976562000,7.6217141151428220,44.6148796081543000,51,104,91,80,76,14906,2147750537,2147423213,2148006445,2147873380,2147623844,2147077248,2148236918,2147199616,3120,4,13,59759
1361224034,5807,445.8200073242187500,7.7491998672485350,34.1013984680175800,120.2145996093750000,564.4387817382812000,7.7271862030029300,44.1037788391113300,50,103,87,80,78,14905,2147746825,2147424777,2148007936,2147874349,2147623058,2147081417,2148242075,2147202102,3426,4,13,18416
1361224155,5811,435.4200134277344000,7.8396000862121580,34.1002006530761700,123.6728973388671900,561.5521850585938000,7.8194661140441895,43.7285194396972660,50,105,86,79,76,14905,2147743798,2147422418,2148006043,2147871232,2147622500,2147081453,2148236224,2147201252,3112,4,13,29072
1361224289,5809,424.5499877929687500,7.9781999588012695,34.1022987365722660,126.6716995239257800,556.4368286132812000,7.9828219413757320,43.3649711608886700,50,104,88,81,76,14906,2147743451,2147422765,2148005494,2147872630,2147621632,2147088438,2148235108,2147201362,419,5,13,21141
1361224443,5807,413.9200134277344000,8.3101997375488280,34.1067008972168000,133.3973999023437500,546.8026733398438000,8.2898893356323240,42.5948982238769500,51,105,87,80,76,14903,2147743936,2147420809,2148005357,2147873435,2147619273,2147091492,2148239451,2147199113,50,4,13,24818
1361224608,5805,402.2500000000000000,8.4629001617431640,34.1036987304687500,138.8320007324218800,541.6146240234375000,8.4549312591552730,42.0305290222168000,50,105,85,80,75,14905,2147745005,2147423323,2148006198,2147871405,2147618477,2147086061,2148233069,2147198921,2500,3,13,57228
1361224751,5808,391.5899963378906000,8.7393999099731450,34.0982017517089840,148.7362976074218800,532.3897094726562000,8.7478599548339840,41.0376281738281250,50,105,92,79,74,14906,2147743277,2147422948,2148006107,2147871661,2147619629,2147090678,2148228790,2147202057,1671,4,13,30520
1361224898,5806,379.6000061035156000,9.0620002746582030,34.0933990478515600,161.4447937011718800,521.9832153320312000,9.0775184631347660,39.8539009094238300,50,104,90,80,74,14903,2147742208,2147422985,2148006866,2147872722,2147613851,2147090898,2148224100,2147203090,444,3,13,59351
1361225008,5808,368.7600097656250000,9.5992002487182620,34.0998001098632800,173.2908020019531200,506.1152954101562500,9.5786199569702150,38.7053718566894500,49,104,86,80,73,14903,2147740242,2147425270,2148008658,2147872347,2147616384,2147098898,2148229037,2147202569,2837,3,13,11805
1361225118,5811,357.3399963378906000,9.7081003189086910,34.1058998107910160,178.8627014160156200,502.1545104980469000,9.7034149169921880,38.2445411682128900,50,103,87,79,72,14904,2147739977,2147424000,2148006482,2147875291,2147611785,2147095149,2148229174,2147203026,1986,4,14,29190
1361225219,5809,346.5000000000000000,10.1336002349853520,34.1156997680664060,186.0639038085937500,488.4281921386719000,10.1350603103637700,37.5223808288574200,50,103,90,80,72,14902,2147736960,2147423634,2148009298,2147872603,2147613165,2147097078,2148218733,2147203456,1665,3,13,25634
1361225318,5810,336.2200012207031000,10.5003004074096680,34.1281013488769500,194.7588958740234400,477.2604980468750000,10.4853200912475590,36.7696304321289060,49,103,88,80,70,14903,2147737993,2147424731,2148012141,2147875547,2147607771,2147101796,2148222107,2147205284,1448,3,14,55884
1361225428,5807,325.7500000000000000,11.0473003387451170,34.1418991088867200,202.8869934082031200,459.8393859863281000,11.0301399230957030,35.9777412414550800,48,108,89,79,69,14904,2147735259,2147424978,2148011968,2147871716,2147609298,2147104822,2148221266,2147206774,1402,4,13,24214
1361225569,5811,315.3800048828125000,11.2386999130249020,34.1526985168457000,206.1670074462890600,453.4609069824219000,11.2291603088378900,35.6764411926269500,49,104,85,79,69,14902,2147732205,2147429037,2148016064,2147873307,2147605129,2147106358,2148219794,2147210176,2139,3,15,17431
1361225767,5809,304.3099975585937500,11.6187000274658200,34.1556015014648440,207.3016052246093800,441.1514892578125000,11.6125698089599610,35.4101104736328100,49,103,86,80,69,14903,2147733476,2147426989,2148012461,2147871597,2147602678,2147114240,2148212342,2147207460,1096,3,14,23752
1361225920,5809,292.5100097656250000,11.8695001602172850,34.1516990661621100,208.1340942382812500,433.1260986328125000,11.8620996475219730,35.2317695617675800,49,102,86,80,69,14905,2147730587,2147437732,2148036973,2147876982,2147599012,2147118153,2148229092,2147206811,812,3,14,9643
1361226052,5811,281.6499938964844000,12.4356002807617190,34.1659011840820300,207.7832031250000000,415.4343872070312500,12.4110097885131840,34.9715003967285160,49,104,88,80,67,14903,2147728813,2147438756,2148048512,2147870262,2147602614,2147126098,2148233782,2147210688,71,4,13,32244
1361226198,5813,270.5299987792969000,13.3741998672485350,34.2365989685058600,210.1649017333984400,384.1644897460937500,13.3776197433471680,34.3459701538085940,48,101,85,80,69,14900,2147727808,2147445577,2148065051,2147873005,2147598025,2147135460,2148235821,2147208036,362,3,14,2410
1361226330,5805,259.5499877929687500,14.2667999267578120,34.3125000000000000,209.5590057373047000,354.9364929199219000,14.2775802612304690,33.9361381530761700,48,103,85,80,68,14902,2147727661,2147459556,2148093165,2147872347,2147593069,2147143817,2148242587,2147215277,129,4,13,1204
1361226476,5807,248.6000061035156200,15.6723003387451170,34.4836997985839840,212.9364013671875000,309.6737976074219000,15.6660604476928710,33.0747985839843750,49,101,87,80,66,14897,2147725257,2147478409,2148126025,2147870610,2147586907,2147168502,2148253184,2147214966,2609,3,14,528
1361226608,5806,237.5599975585937500,16.1599998474121100,34.5438003540039060,213.5233001708984400,294.3987121582031000,16.1335697174072270,32.8207283020019500,48,103,87,80,67,14896,2147727972,2147506733,2148183085,2147871149,2147585728,2147185490,2148281773,2147219437,2409,3,14,6493
1361226743,5807,226.0899963378906200,17.0070991516113280,34.6519012451171900,212.5155944824218800,263.6473083496094000,17.0736503601074220,32.4368286132812500,48,101,87,79,66,14894,2147740745,2147559168,2148284196,2147873764,2147587904,2147224155,2148322038,2147221275,2350,3,15,35828
1361226875,5810,216.0599975585937500,18.1201000213623050,34.7984008789062500,212.4104003906250000,230.6098937988281200,18.0827102661132800,31.9791908264160160,49,102,89,80,65,14890,2147744064,2147583835,2148314166,2147871716,2147586816,2147249188,2148336429,2147224539,1603,3,15,59252
1361227062,5807,204.4499969482422000,18.5480003356933600,34.8666992187500000,213.3495941162109400,214.1829986572265600,18.5843696594238280,31.7010498046875000,49,103,87,80,64,14883,2147764635,2147644251,2148397211,2147872804,2147588726,2147296466,2148374427,2147227017,501,2,14,31114
1361227162,5808,197.4199981689453000,19.0111999511718750,34.9310989379882800,213.9918060302734400,200.1342010498047000,19.0134792327880860,31.4738101959228500,50,105,88,80,64,14882,2147817069,2147813824,2148701476,2147875931,2147611712,2147398089,2148527606,2147241810,973,2,14,55079
1361227217,5808,193.5399932861328000,19.3502998352050780,34.9799995422363300,214.6531066894531200,189.2543945312500000,19.3458995819091800,31.2904605865478500,51,104,87,81,64,14883,2147840384,2147857371,2148775890,2147876178,2147618523,2147430875,2148564772,2147244937,746,2,15,56897
1361227272,5805,189.7500000000000000,19.6774997711181640,35.0363006591796900,216.3356933593750000,178.5798034667968800,19.6721591949462900,31.0569496154785160,51,109,87,80,63,14878,2147809993,2147745746,2148549558,2147871579,2147607323,2147382299,2148465792,2147238811,340,3,15,47971
1361227327,5807,185.7200012207031200,19.9535999298095700,35.0737991333007800,217.5735931396484400,170.1125030517578000,19.9310703277587900,30.8780403137207030,53,109,88,81,64,14873,2147896804,2147986285,2148986157,2147874294,2147642413,2147520612,2148668269,2147251657,387,2,15,21173
1361227402,5805,180.2400054931640600,20.0983009338378900,35.0899009704589840,218.1831970214843800,164.8964996337890600,20.0906105041503900,30.7767200469970700,55,110,87,80,64,14873,2147937462,2148057152,2149088667,2147875273,2147662811,2147577572,2148729014,2147256621,3536,2,15,31483
1361227457,5811,176.2700042724609400,20.2318000793457030,35.0937995910644500,216.6448059082031200,160.1224060058593800,20.2366790771484380,30.7929496765136720,58,110,89,80,63,14866,2147982025,2148139026,2149217005,2147877933,2147683008,2147628416,2148794102,2147262299,3589,3,15,27612
1361227512,5809,172.4299926757812500,20.3314990997314450,35.0774993896484400,214.6260070800781200,156.5933074951172000,20.3446807861328120,30.8522300720214840,64,113,91,81,64,14861,2148044160,2148242486,2149378916,2147875200,2147705298,2147690660,2148869558,2147269284,737,3,15,34636
1361227567,5810,168.7799987792968800,20.4990997314453120,35.0802001953125000,211.4940032958984400,151.9696044921875000,20.4862098693847660,30.9577102661132800,68,118,88,82,63,14855,2147813028,2147650770,2148313225,2147872164,2147606345,2147319881,2148325860,2147226605,1175,2,15,55030
1361227622,5806,165.4299926757812500,20.8075008392334000,35.1114006042480500,209.5634002685547000,140.6125946044922000,20.8340396881103500,30.9103202819824220,78,117,89,82,64,14844,2147827748,2147672155,2148344182,2147872694,2147607149,2147328905,2148338075,2147228736,809,2,15,28348
1361227712,5808,161.2500000000000000,21.2448997497558600,35.1739997863769500,212.1873016357422000,127.8283004760742200,21.2259407043457030,30.5996398925781250,89,115,89,81,63,14837,2148309494,2148658532,2149997632,2147880128,2147803739,2147895451,2149131392,2147286171,3192,2,16,29145
1361227822,5808,158.3899993896484400,21.4179000854492200,35.1955986022949200,215.8782958984375000,122.1924972534179700,21.3988399505615230,30.3310298919677730,94,120,89,81,63,14824,2148170395,2148302619,2149329353,2147883282,2147746203,2147679762,2148799890,2147262948,2793,2,15,35078
1361227987,5806,154.1300048828125000,21.6805992126464840,35.2100982666015600,217.1275024414062500,114.4524993896484400,21.6364307403564450,30.1651401519775400,103,124,90,81,62,14818,2148358299,2148556699,2149643117,2147885769,2147816694,2147795437,2148912704,2147277238,454,2,16,32558
1361228117,5808,149.7100067138672000,21.8122997283935550,35.2246017456054700,219.4082031250000000,108.8793029785156200,21.8076190948486330,29.9752902984619140,108,123,90,82,61,14802,2148443090,2148566326,2149545691,2147881956,2147843062,2147781705,2148857060,2147273481,3195,2,16,57762
1361228216,5810,145.6399993896484400,22.0067005157470700,35.2303009033203100,220.7178955078125000,102.8202972412109400,21.9938392639160160,29.8304100036621100,116,126,90,83,63,14791,2149494985,2150172050,2151865142,2147895643,2148239506,2148523474,2149784640,2147349622,2939,2,16,25297
1361228304,5810,141.8699951171875000,22.1566009521484380,35.2333984375000000,221.7333984375000000,97.9845733642578100,22.1425495147705080,29.7167892456054700,119,125,90,82,61,14780,2150031652,2150869504,2152742098,2147899849,2148438857,2148834953,2150146688,2147381769,2328,2,16,14125
1361228394,5812,136.8000030517578000,22.4484996795654300,35.2420997619628900,223.7500000000000000,90.0698394775390600,22.3861103057861330,29.5146503448486330,121,126,90,84,62,14775,2151198820,2152316644,2154485805,2147916269,2148863396,2149444818,2150812644,2147439917,1396,2,16,24668
1361228449,5806,133.2100067138672000,22.5818996429443360,35.2478981018066400,225.0263977050781200,84.4979476928711000,22.5577106475830080,29.3802108764648440,128,122,89,82,60,14781,2152449691,2153851730,2156327360,2147933686,2149308160,2150064960,2151489161,2147500745,1922,2,16,59256
1361228515,5808,129.2200012207031200,22.6502990722656250,35.2509994506835940,227.6013946533203000,81.2626037597656200,22.6574096679687500,29.2135791778564450,128,124,89,84,63,14771,2149686573,2149797056,2150697782,2147890605,2148287277,2148261513,2149264192,2147320411,2124,2,16,45334
1361228581,5806,125.8499984741211000,22.9340991973876950,35.2557983398437500,228.6053924560547000,72.9787826538086000,22.9128494262695300,29.0597400665283200,139,124,92,83,60,14762,2154811456,2156430802,2159009298,2147970304,2150112694,2151025700,2152436891,2147596562,2727,2,15,16423
1361228694,5805,122.1399993896484400,22.9549007415771500,35.2583999633789060,230.6277008056640600,71.8182830810546900,22.9486598968505860,28.9485893249511720,140,126,92,83,61,14753,2156559405,2158254619,2160683072,2147988022,2150752018,2151707849,2153016996,2147656950,1989,2,16,692
1361228848,5809,118.2699966430664000,22.9969997406005860,35.2602996826171900,231.6927032470703000,70.4198837280273400,22.9918193817138670,28.8804492950439450,135,126,93,84,60,14747,2156968621,2158095131,2159700809,2147983058,2150963282,2151644754,2152748443,2147643072,1112,2,16,62166
1361228993,5807,113.6699981689453100,23.2469005584716800,35.2681007385253900,231.8995056152343800,62.6734313964843750,23.2310199737548830,28.7728691101074220,124,125,90,84,61,14739,2155292461,2155221275,2155511917,2147942976,2150447113,2150543168,2151279277,2147519652,1412,2,16,51095
1361229081,5807,109.4100036621093800,23.7010993957519530,35.2955017089843750,232.9006042480468800,48.5511894226074200,23.6677799224853500,28.5482501983642580,108,122,91,84,59,14760,2171081874,2172701449,2173582116,2148172818,2156741101,2157915145,2158270409,2148198125,1490,1,16,1323
1361229169,5805,106.2200012207031200,23.9710998535156250,35.3120002746582000,234.5196990966797000,39.5993881225585940,23.9451007843017580,28.3612899780273440,91,121,92,84,57,14770,2171952356,2173023643,2173244909,2148172397,2157810980,2158775085,2158718756,2148240996,714,2,16,23044
1361229358,5807,102.2900009155273400,24.3766994476318360,35.3288002014160160,236.5923004150390600,26.1087493896484380,24.3637905120849600,28.0984706878662100,69,119,89,85,57,14770,2178693083,2179971547,2180059108,2148313974,2164121773,2164933787,2163275035,2148648694,155,2,16,56636
1361229490,5807,99.3499984741211000,24.3922996520996100,35.3315010070800800,237.7644042968750000,25.2583408355712900,24.3902091979980470,28.0348396301269530,63,120,91,86,57,14771,2182911405,2184389833,2184257993,2148442587,2170705545,2171023908,2167339611,2148961298,3286,2,16,8615
1361229567,5810,97.0500030517578100,24.3941993713378900,35.3303985595703100,237.9969024658203000,25.1925392150878900,24.3922595977783200,28.0234107971191400,62,123,91,83,56,14767,2163171492,2162607232,2161918848,2148087734,2159011337,2158114285,2156227401,2147948598,3195,1,16,63259
1361229646,5805,93.5199966430664000,24.3959007263183600,35.3307991027832000,238.2527008056640600,25.1683502197265620,24.3930091857910160,28.0116996765136720,61,121,88,84,57,14765,2187486592,2189156900,2188914825,2148664713,2179215680,2178618998,2172128292,2149324617,3050,2,16,28560
1361229701,5812,90.0800018310546900,24.3957004547119140,35.3310012817382800,238.3961944580078000,25.1514301300048830,24.3935298919677730,28.0049991607666000,61,122,92,86,56,14764,2190963126,2192698797,2192360768,2148837824,2184771044,2183748178,2175576630,2149600256,3050,2,16,48765
1361229756,5809,86.4899978637695300,24.3971004486084000,35.3303985595703100,238.4922027587890600,25.0946807861328120,24.3952999114990230,27.9999008178710940,61,123,91,85,56,14767,2194544256,2196335478,2195902061,2149073206,2189850066,2188249344,2178488768,2149840155,2989,1,16,33759
1361229811,5808,82.7500000000000000,24.3973007202148440,35.3307991027832000,238.5214996337890600,25.0619392395019530,24.3963203430175780,27.9983806610107420,62,121,93,85,56,14761,2198167899,2200135744,2199557604,2149340196,2194417197,2192218038,2180936749,2150062134,3202,1,16,50120
1361229866,5805,79.0000000000000000,24.3969001770019530,35.3308982849121100,238.6074981689453000,24.9849300384521500,24.3987102508544920,27.9934501647949220,62,121,93,85,56,14762,2206826816,2209106788,2208645741,2149876370,2205079451,2202385609,2188277312,2150731474,3378,1,16,49939
1361229921,5807,75.3700027465820300,24.3992004394531250,35.3302001953125000,238.7541961669922000,24.9630908966064450,24.3993892669677730,27.9866409301757800,62,122,94,83,58,14762,2210490148,2212647250,2211985188,2150369490,2212115867,2208731858,2192496521,2151093129,3356,2,17,28656
1361229996,5808,70.7500000000000000,24.3990001678466800,35.3297996520996100,238.6629028320312500,24.9522800445556640,24.3997192382812500,27.9905300140380860,62,122,91,85,55,14762,2218071213,2220372845,2219585792,2151202176,2221842212,2217467492,2198372717,2151694948,3397,1,16,46411
1361230051,5806,68.0199966430664000,24.4043998718261720,35.3302001953125000,238.8558044433593800,24.7056198120117200,24.4073905944824220,27.9787006378173830,60,122,91,84,55,14762,2225539190,2228575451,2228272027,2152084260,2229391954,2224558308,2203357778,2152235126,3437,1,16,4443
1361230106,5803,65.3799972534179700,24.4057006835937500,35.3292999267578100,238.9346008300781200,24.7231292724609380,24.4068508148193360,27.9755592346191400,61,120,91,83,56,14757,2234610742,2238245193,2238131949,2153061824,2240153600,2234773366,2210586998,2152976832,3583,1,16,9638
1361230161,5811,62.9399986267089840,24.4043998718261720,35.3300018310546900,238.9317016601562500,24.7661991119384770,24.4055099487304700,27.9760398864746100,59,122,92,84,56,14757,2177195940,2174822601,2171974939,2149156635,2180558994,2175051629,2165846326,2148851392,3542,1,16,22494
1361230216,5805,60.4700012207031250,24.4055004119873050,35.3302001953125000,238.9700012207031200,24.7114200592041000,24.4072093963623050,27.9736995697021500,58,122,90,85,54,14757,2202603392,2201801115,2199055588,2151000438,2208399908,2201541942,2184708873,2150656502,3362,1,16,6358
1361230271,5808,58.3600006103515600,24.4148006439209000,35.3300018310546900,239.0308074951172000,24.4460792541503900,24.4154491424560550,27.9678802490234380,57,122,92,84,55,14763,2237097517,2240304374,2240076004,2154867044,2248317120,2241631396,2214636443,2153663186,3085,1,16,56970
1361230328,5806,56.7299995422363300,24.4151000976562500,35.3301010131835940,239.0581970214843800,24.3520603179931640,24.4183807373046880,27.9654502868652340,59,122,91,84,58,14761,2252835401,2257532480,2257243904,2156780269,2268413083,2260379163,2227592758,2154996900,2421,1,16,29422
1361230394,5809,55.2200012207031250,24.4179000854492200,35.3297996520996100,239.0859985351562500,24.3567790985107420,24.4182300567626950,27.9641609191894530,57,121,95,86,56,14757,2262368292,2268663771,2269077083,2158399076,2277041929,2268412132,2232854171,2155831744,1541,1,16,14406
1361230471,5803,53.2200012207031250,24.4167003631591800,35.3300018310546900,239.2122955322265600,24.2990493774414060,24.4200191497802730,27.9577598571777340,56,122,90,85,54,14758,2267661577,2273297115,2273816841,2159860425,2287727661,2278745014,2240172096,2156529892,1005,1,16,51447
1361230537,5806,51.0499992370605500,24.4202003479003900,35.3297004699707000,239.2079010009765600,24.1329402923584000,24.4251899719238280,27.9560203552246100,57,121,91,84,55,14758,2277944612,2284406857,2286249792,2161955986,2292300909,2282045942,2241910244,2157110838,728,2,16,14072
1361230603,5804,49.2500000000000000,24.4200000762939450,35.3303985595703100,239.2846069335937500,24.1253700256347660,24.4254207611084000,27.9524307250976560,56,122,90,84,56,14756,2281779730,2287207762,2288933686,2164125604,2301573174,2290624786,2248276041,2158003200,297,1,16,25264
1361230678,5806,46.6699981689453100,24.4181995391845700,35.3305015563964840,239.4273986816406200,24.0924205780029300,24.4264507293701170,27.9456100463867200,56,122,93,87,58,14758,2284178569,2289256722,2290510729,2165478034,2314785965,2302671853,2256387556,2159059053,2898,2,17,15745
1361230733,5808,43.5200004577636700,24.4193000793457030,35.3302001953125000,239.5027008056640600,24.2830200195312500,24.4205207824707030,27.9446601867675780,55,120,91,86,57,14759,2204677760,2201314797,2197363053,2153939218,2217166162,2206007734,2185512804,2151392521,2995,2,16,13356
1361230788,5809,40.1899986267089840,24.4151000976562500,35.3298988342285160,239.5419006347656200,24.3203907012939450,24.4193592071533200,27.9433708190917970,55,120,90,83,59,14755,2214907062,2212197430,2208709156,2157063350,2229232073,2217395776,2193567872,2152657005,2959,2,16,29179
1361230843,5810,37.0900001525878900,24.4157009124755860,35.3306007385253900,239.4541015625000000,24.4081192016601560,24.4166297912597660,27.9482707977294920,56,119,92,85,59,14759,2211750272,2208242139,2204474011,2157248557,2227179565,2214618861,2191164562,2152561417,3070,0,16,9862
1361230898,5806,34.8199996948242200,24.4186992645263670,35.3302993774414060,239.6907043457031200,24.0854396820068360,24.4266605377197270,27.9336490631103500,55,120,92,83,55,14760,2323858102,2330839067,2336015168,2188007698,2378183698,2361294052,2297763126,2167176310,2942,2,17,46660
1361230953,5822,32.9199981689453100,24.4181003570556640,35.3297996520996100,239.6540069580078000,24.2049293518066400,24.4229507446289060,27.9367504119873050,54,120,93,84,55,14759,2243669668,2242044132,2239796196,2167582381,2270305325,2254182482,2218593453,2156829805,2654,1,16,62074
1361231010,5809,31.1499996185302730,24.4160995483398440,35.3307991027832000,239.7142944335937500,24.1296997070312500,24.4252891540527340,27.9332504272460940,55,122,92,84,53,14751,2264295250,2264153270,2262981897,2172442898,2292214902,2274639597,2233306294,2159043181,2862,3,18,42009
1361231076,5808,28.8099994659423830,24.4169006347656250,35.3305015563964840,239.8251037597656200,24.2052307128906250,24.4229393005371100,27.9290695190429700,54,121,92,85,57,14759,2350965558,2359064521,2367026011,2206086738,2407309531,2386660525,2315717494,2172867830,3145,1,17,15423
1361231131,5808,26.8700008392334000,24.4186992645263670,35.3296012878418000,239.8437957763672000,24.0505294799804700,24.4277496337890620,27.9263401031494140,53,120,90,83,53,14762,2369071012,2377784182,2386572050,2218284452,2433709988,2410080676,2331524114,2176080859,2859,2,16,16448
1361231186,5805,25.1700000762939450,24.4171009063720700,35.3300018310546900,239.9506072998047000,23.9139194488525400,24.4319896697998050,27.9198894500732420,53,120,92,84,53,14746,2368102957,2376383414,2385034048,2223482121,2444621568,2419577462,2338031616,2179165814,2801,0,16,51185
